Regional Weather Roundup
Issued by NWS Jackson, KY

Home | Current Version | Previous Version | Text Only | Print | Product List | Glossary On
Versions: 1 2 3 4 5 6 7 8 9 10 11 12 13 14 15 16 17 18 19 20 21 22 23 24 25 26 27 28 29 30 31 32 33 34 35 36 37 38 39 40 41 42 43 44 45 46 47 48 49 50
000
ASUS43 KJKL 311419
RWRJKL

EAST KENTUCKY HOURLY WEATHER ROUNDUP
NATIONAL WEATHER SERVICE JACKSON KY
1000 AM EDT THU JUL 31 2014

NOTE: "FAIR" INDICATES FEW OR NO CLOUDS BELOW 12,000 FEET WITH
NO SIGNIFICANT WEATHER AND/OR OBSTRUCTIONS TO VISIBILITY.

* THESE REPORTS ARE NOT UNDER NWS QUALITY CONTROL AND MAY NOT
  REPORT WEATHER SUCH AS PRECIPITATION AND FOG.

KYZ079-080-083-085-087-088-110-112-115-119-120-311500
...EASTERN KENTUCKY...

CITY           SKY/WX    TMP DP  RH WIND       PRES   REMARKS
JACKSON        SUNNY     67  61  81 CALM      30.15S
LONDON         MOSUNNY   69  61  75 CALM      30.14S
SOMERSET*      SUNNY     64  64 100 CALM      30.15S
MONTICELLO*    PTSUNNY   71  62  73 CALM      30.15S
WILLIAMSBURG*    N/A     64  64 100 CALM      30.14S
MIDDLESBORO*   CLOUDY    60  59  97 CALM      30.16S
HARLAN APT*    PTSUNNY   61  61 100 MISG      30.16S
HAZARD APT*    SUNNY     68  64  88 CALM      30.15
BLACK MTN*       N/A     66  57  72 E1          N/A
BIG SANDY*     SUNNY     69  61  75 S5        30.15S
MOREHEAD APT*    N/A     70  63  78 CALM      30.15S
ASHLAND*       SUNNY     68  59  73 CALM      30.10F
$$

KYZ035-036-041-042-044-050-067-078-099-311500
...CENTRAL KENTUCKY...

CITY           SKY/WX    TMP DP  RH WIND       PRES   REMARKS
MT STERLING*   SUNNY     70  63  78 CALM      30.14S
FLEMING/MASON* SUNNY     70  63  78 CALM      30.13F
DANVILLE*      SUNNY     70  61  73 CALM      30.14S
RICHMOND*      SUNNY     72  59  64 CALM      30.13S
LEXINGTON      SUNNY     73  62  68 CALM      30.13R
FRANKFORT      SUNNY     73  62  68 CALM      30.11S
$$

KYZ091>093-OHZ055-061-077-WVZ005-015-034-035-042-311500
...SOUTHERN OHIO/WEST VIRGINIA...

CITY           SKY/WX    TMP DP  RH WIND       PRES   REMARKS
COLUMBUS       SUNNY     70  60  70 SW3       30.08S
DAYTON         SUNNY     70  62  76 SW5       30.10S
WILMINGTON     SUNNY     70  62  76 SW7       30.10S
HUNTINGTON     SUNNY     67  62  84 SW6       30.12S
CHARLESTON     SUNNY     71  65  81 CALM      30.13S
PINEVILLE*     SUNNY     65  62  89 MISG      30.22F
BECKLEY        SUNNY     68  57  68 SW5       30.20R
BLUEFIELD      MOSUNNY   71  53  52 CALM      30.21S
$$

VAZ002-007-008-TNZ017-027-036-066-071-311500
...SOUTHWEST VIRGINIA/EAST TENNESSEE...

CITY           SKY/WX    TMP DP  RH WIND       PRES   REMARKS
WISE*          MOSUNNY   70  55  60 NE5       30.20F
JONESVILLE*    MOSUNNY   66  61  82 CALM      30.16F
ABINGDON*      PTSUNNY   69  59  70 E8        30.17F
BRISTOL        PTSUNNY   65  57  75 E3        30.15F
KNOXVILLE      CLOUDY    67  61  81 E6        30.11S
OAK RIDGE      CLOUDY    67  62  84 NE6       30.14R
CROSSVILLE     CLOUDY    65  59  81 CALM      30.16R
NASHVILLE      PTSUNNY   72  60  66 E5        30.12S
$$

...KEY TO REMARKS...
VSB - VISIBILITY IN MILES
WCI - WIND CHILL INDEX
HX  - HEAT INDEX

$$


USA.gov is the U.S. government's official web portal to all federal, state and local government web resources and services.